K9BM Weather Reports


time (UTC)temp
C
wind
direction
speed
KPH
gust
KPH
rain 1hr
cm
rain 24hr
cm
rain mn
cm
humidity
%
barometer
mb
20260831214506 26 44 6.4 11.3 0.00 0.00 0.00 16 1009.6
20260831214006 26 136 1.6 19.3 0.00 0.00 0.00 17 1009.7
20260831213505 25 136 3.2 20.9 0.00 0.00 0.00 16 1009.8
20260831213006 25 167 11.3 20.9 0.00 0.00 0.00 17 1009.9
20260831212506 25 320 6.4 22.5 0.00 0.00 0.00 18 1010.0
20260831212006 24 233 11.3 22.5 0.00 0.00 0.00 18 1010.1
20260831211506 24 339 14.5 22.5 0.00 0.00 0.00 18 1010.2
20260831211006 24 317 12.9 20.9 0.00 0.00 0.00 18 1010.2
20260831210006 24 347 6.4 22.5 0.00 0.00 0.00 17 1010.4
20260831205506 24 293 14.5 22.5 0.00 0.00 0.00 18 1010.4
20260831205005 24 288 9.7 20.9 0.00 0.00 0.00 18 1010.4
20260831204506 24 246 1.6 19.3 0.00 0.00 0.00 18 1010.5
20260831204006 23 284 4.8 19.3 0.00 0.00 0.00 18 1010.7
20260831203506 24 274 12.9 22.5 0.00 0.00 0.00 18 1010.8
20260831203006 24 285 12.9 24.1 0.00 0.00 0.00 19 1010.8
20260831202506 24 281 14.5 24.1 0.00 0.00 0.00 18 1010.8
20260831202006 24 286 16.1 24.1 0.00 0.00 0.00 18 1010.8
20260831195506 23 271 19.3 27.4 0.00 0.00 0.00 17 1011.1
20260831194505 23 271 12.9 20.9 0.00 0.00 0.00 19 1011.2
20260831193506 23 270 6.4 32.2 0.00 0.00 0.00 18 1011.3
20260831192006 22 279 14.5 25.7 0.00 0.00 0.00 19 1011.6
20260831191506 22 260 20.9 25.7 0.00 0.00 0.00 18 1011.6
20260831191006 22 241 11.3 25.7 0.00 0.00 0.00 20 1011.6
20260831190006 22 263 16.1 24.1 0.00 0.00 0.00 20 1011.7
20260831185506 22 264 16.1 32.2 0.00 0.00 0.00 21 1011.7
20260831185006 21 254 16.1 32.2 0.00 0.00 0.00 21 1011.8
20260831184006 21 245 16.1 27.4 0.00 0.00 0.00 21 1011.8
20260831183006 21 251 16.1 32.2 0.00 0.00 0.00 22 1012.0
20260831182505 21 245 20.9 32.2 0.00 0.00 0.00 22 1012.1
20260831181506 21 245 16.1 29.0 0.00 0.00 0.00 23 1012.1
20260831181006 21 266 19.3 29.0 0.00 0.00 0.00 23 1012.2
20260831180006 20 258 14.5 25.7 0.00 0.00 0.00 24 1012.2
20260831175506 20 248 14.5 25.7 0.00 0.00 0.00 24 1012.4
20260831175006 20 249 14.5 25.7 0.00 0.00 0.00 23 1012.4
20260831174506 20 266 17.7 25.7 0.00 0.00 0.00 25 1012.5
20260831174006 20 255 19.3 24.1 0.00 0.00 0.00 23 1012.6
20260831173505 20 254 11.3 22.5 0.00 0.00 0.00 24 1012.6
20260831173006 20 266 11.3 24.1 0.00 0.00 0.00 25 1012.6
20260831172506 20 241 12.9 24.1 0.00 0.00 0.00 25 1012.7
20260831172006 19 261 12.9 22.5 0.00 0.00 0.00 26 1012.7
20260831170005 18 248 14.5 27.4 0.00 0.00 0.00 27 1012.8
20260831165505 18 239 14.5 29.0 0.00 0.00 0.00 27 1012.8
20260831165006 18 255 20.9 29.0 0.00 0.00 0.00 26 1012.8
20260831164506 18 270 16.1 25.7 0.00 0.00 0.00 27 1012.8
20260831164005 18 255 20.9 25.7 0.00 0.00 0.00 27 1012.8
20260831163006 17 274 16.1 27.4 0.00 0.00 0.00 28 1012.7
20260831162006 17 265 16.1 29.0 0.00 0.00 0.00 29 1012.8
20260831161506 17 273 20.9 29.0 0.00 0.00 0.00 28 1012.8
20260831161005 17 270 14.5 22.5 0.00 0.00 0.00 30 1012.8
20260831160006 17 251 16.1 27.4 0.00 0.00 0.00 31 1012.8
20260831155506 16 271 16.1 27.4 0.00 0.00 0.00 32 1012.7
20260831155006 16 253 17.7 27.4 0.00 0.00 0.00 32 1012.7
20260831154505 16 256 16.1 24.1 0.00 0.00 0.00 32 1012.8
20260831154006 16 272 16.1 24.1 0.00 0.00 0.00 32 1012.7
20260831153506 16 264 14.5 29.0 0.00 0.00 0.00 32 1012.6
20260831153006 16 264 17.7 29.0 0.00 0.00 0.00 33 1012.7
20260831152505 16 265 19.3 25.7 0.00 0.00 0.00 32 1012.8
20260831152005 15 269 19.3 29.0 0.00 0.00 0.00 33 1012.7
20260831151005 15 276 20.9 27.4 0.00 0.00 0.00 33 1012.6
20260831150006 15 261 20.9 29.0 0.00 0.00 0.00 34 1012.6
20260831145006 15 264 19.3 29.0 0.00 0.00 0.00 35 1012.5
20260831144505 15 263 20.9 29.0 0.00 0.00 0.00 35 1012.4
20260831144006 15 243 17.7 32.2 0.00 0.00 0.00 35 1012.4
20260831143006 14 264 20.9 32.2 0.00 0.08 0.00 36 1012.1
20260831142505 14 253 22.5 33.8 0.00 0.13 0.00 37 1012.0
20260831142006 14 244 19.3 33.8 0.00 0.18 0.00 37 1011.9
20260831141505 14 240 20.9 32.2 0.00 0.20 0.00 37 1011.8
20260831141006 13 244 19.3 32.2 0.00 0.23 0.00 37 1011.9
20260831140005 13 246 17.7 32.2 0.00 0.28 0.00 37 1011.8
20260831135006 13 245 22.5 37.0 0.00 0.28 0.00 36 1011.6
20260831132006 13 254 29.0 37.0 0.00 0.28 0.00 36 1011.4
20260831131506 13 249 27.4 38.6 0.00 0.28 0.00 36 1011.4
20260831131006 13 251 29.0 38.6 0.00 0.28 0.00 38 1011.3
20260831130005 12 243 24.1 35.4 0.00 0.28 0.00 39 1011.1
20260831125006 12 246 27.4 40.2 0.00 0.28 0.00 39 1011.0
20260831124506 12 245 25.7 40.2 0.00 0.28 0.00 40 1010.9
20260831124005 12 243 25.7 38.6 0.00 0.28 0.00 40 1010.9
20260831122505 12 244 25.7 37.0 0.00 0.28 0.00 41 1010.7
20260831122006 11 242 22.5 32.2 0.00 0.28 0.00 43 1010.7
20260831121506 11 236 16.1 25.7 0.00 0.28 0.00 44 1010.7
20260831121005 11 234 17.7 32.2 0.00 0.28 0.00 44 1010.7
20260831120005 11 234 19.3 27.4 0.00 0.28 0.00 45 1010.7
20260831115506 11 231 16.1 27.4 0.00 0.28 0.00 45 1010.7
20260831115006 11 235 16.1 22.5 0.00 0.30 0.00 45 1010.7
20260831114506 11 236 16.1 22.5 0.00 0.30 0.00 46 1010.8
20260831114006 11 234 16.1 22.5 0.00 0.30 0.00 46 1010.8
20260831113506 11 231 16.1 20.9 0.00 0.30 0.00 47 1010.8
20260831113005 11 233 16.1 22.5 0.00 0.30 0.00 47 1010.8
20260831112506 11 229 16.1 22.5 0.00 0.30 0.00 47 1010.8
20260831112005 11 229 14.5 20.9 0.00 0.30 0.00 47 1010.7
20260831111505 11 226 14.5 20.9 0.00 0.30 0.00 47 1010.8
20260831111005 11 227 12.9 20.9 0.00 0.30 0.00 47 1010.8
20260831110005 11 232 14.5 19.3 0.00 0.30 0.00 47 1010.9
20260831105506 11 232 14.5 19.3 0.00 0.30 0.00 46 1010.9
20260831105006 11 228 12.9 20.9 0.00 0.30 0.00 46 1010.8
20260831104505 11 228 14.5 22.5 0.00 0.30 0.00 46 1010.8
20260831104005 11 230 16.1 25.7 0.00 0.30 0.00 46 1010.8
20260831103005 11 232 16.1 25.7 0.00 0.30 0.00 46 1010.7
20260831102505 11 231 14.5 22.5 0.00 0.30 0.00 46 1010.7
20260831101505 11 231 14.5 20.9 0.00 0.30 0.00 48 1010.8
20260831101006 11 225 12.9 20.9 0.00 0.30 0.00 48 1010.7
20260831100005 11 231 11.3 19.3 0.00 0.30 0.00 48 1010.7
20260831095506 11 212 11.3 19.3 0.00 0.30 0.00 48 1010.7
20260831095006 11 229 11.3 19.3 0.00 0.30 0.00 48 1010.7
20260831094506 11 231 11.3 19.3 0.00 0.30 0.00 48 1010.7
20260831094005 11 231 11.3 19.3 0.00 0.30 0.00 48 1010.7
20260831093505 11 231 11.3 19.3 0.00 0.30 0.00 48 1010.7
20260831093005 11 233 11.3 19.3 0.00 0.30 0.00 48 1010.7
20260831092506 11 231 11.3 19.3 0.00 0.30 0.00 48 1010.8
20260831092006 11 230 11.3 16.1 0.00 0.30 0.00 48 1010.7
20260831091505 11 222 9.7 16.1 0.00 0.30 0.00 48 1010.7
20260831090005 11 229 9.7 16.1 0.00 0.30 0.00 49 1010.7
20260831085505 11 210 9.7 16.1 0.00 0.30 0.00 49 1010.8
20260831085005 11 205 11.3 19.3 0.00 0.30 0.00 50 1010.7
20260831084506 11 206 12.9 19.3 0.00 0.30 0.00 50 1010.7
20260831083006 11 213 8.0 14.5 0.00 0.30 0.00 49 1010.7
20260831082506 11 207 8.0 16.1 0.00 0.30 0.00 49 1010.7
20260831082006 11 202 9.7 16.1 0.00 0.30 0.00 49 1010.7
20260831081506 11 200 9.7 14.5 0.00 0.30 0.00 48 1010.7
20260831081006 12 220 6.4 14.5 0.00 0.30 0.00 47 1010.7
20260831080006 12 218 8.0 14.5 0.00 0.30 0.00 47 1010.6
20260831075505 12 213 8.0 14.5 0.00 0.30 0.00 48 1010.6
20260831075006 12 197 8.0 14.5 0.00 0.30 0.00 47 1010.5
20260831074505 12 202 6.4 14.5 0.00 0.30 0.00 48 1010.4
20260831074006 12 217 8.0 16.1 0.00 0.30 0.00 48 1010.4
20260831073505 12 202 11.3 16.1 0.00 0.30 0.00 48 1010.4
20260831072505 12 199 9.7 16.1 0.00 0.30 0.00 48 1010.3
20260831072006 12 207 8.0 12.9 0.00 0.30 0.00 48 1010.3
20260831071505 12 206 9.7 14.5 0.00 0.30 0.00 47 1010.3
20260831071005 12 205 9.7 14.5 0.00 0.30 0.00 48 1010.2
20260831070005 12 201 11.3 19.3 0.00 0.30 0.00 48 1010.1
20260831065505 12 196 14.5 16.1 0.00 0.30 0.00 47 1010.0
20260831065005 12 211 8.0 16.1 0.00 0.30 0.00 46 1010.0
20260831064505 12 230 9.7 14.5 0.00 0.30 0.00 46 1009.9
20260831064005 12 229 9.7 11.3 0.00 0.30 0.00 47 1009.8
20260831063505 12 223 8.0 11.3 0.00 0.30 0.00 48 1009.8
20260831063005 12 222 8.0 16.1 0.00 0.30 0.00 48 1009.8
20260831062005 12 204 9.7 16.1 0.00 0.30 0.00 47 1009.7
20260831061505 12 201 12.9 16.1 0.00 0.30 0.00 47 1009.6
20260831061006 13 205 9.7 16.1 0.00 0.30 0.00 46 1009.5
20260831060006 13 217 9.7 14.5 0.00 0.30 0.00 46 1009.3
20260831055505 13 226 9.7 16.1 0.00 0.30 0.30 46 1009.2
20260831055006 13 218 9.7 16.1 0.00 0.30 0.30 46 1009.2
20260831054505 13 208 9.7 16.1 0.00 0.30 0.30 46 1009.1
20260831054005 13 218 9.7 16.1 0.00 0.30 0.30 46 1009.1
20260831053505 13 218 9.7 16.1 0.00 0.30 0.30 47 1009.1
20260831053006 13 216 8.0 14.5 0.00 0.30 0.30 47 1009.0
20260831052505 13 213 9.7 16.1 0.00 0.30 0.30 47 1009.0
20260831052005 13 229 9.7 16.1 0.00 0.30 0.30 46 1009.1
20260831051005 13 208 8.0 12.9 0.00 0.33 0.30 46 1009.1
20260831050005 13 233 8.0 12.9 0.00 0.33 0.30 43 1009.1
20260831045505 13 227 8.0 14.5 0.00 0.33 0.30 43 1009.1
20260831045005 13 203 8.0 14.5 0.00 0.33 0.30 43 1009.1
20260831044505 13 200 9.7 16.1 0.00 0.33 0.30 42 1009.0
20260831043505 14 198 9.7 14.5 0.00 0.33 0.30 40 1009.1
20260831043005 14 205 4.8 11.3 0.00 0.33 0.30 38 1009.1
20260831042005 14 199 8.0 16.1 0.00 0.33 0.30 38 1008.9
20260831041505 14 184 6.4 19.3 0.00 0.33 0.30 39 1008.9
20260831040005 15 190 8.0 9.7 0.00 0.33 0.30 38 1008.7
20260831035505 15 201 4.8 12.9 0.00 0.33 0.30 37 1008.6
20260831035005 15 199 4.8 12.9 0.00 0.33 0.30 37 1008.7
20260831034505 15 194 9.7 19.3 0.00 0.33 0.30 38 1008.7
20260831034005 15 184 11.3 19.3 0.00 0.33 0.30 39 1008.7
20260831033505 15 182 11.3 14.5 0.00 0.33 0.30 40 1008.6
20260831033005 15 196 8.0 12.9 0.00 0.33 0.30 39 1008.5
20260831032505 15 192 8.0 12.9 0.00 0.33 0.30 40 1008.5
20260831032005 15 226 8.0 14.5 0.00 0.33 0.30 39 1008.5
20260831031505 15 209 4.8 14.5 0.00 0.33 0.30 40 1008.4
20260831031005 15 201 9.7 14.5 0.00 0.33 0.30 40 1008.4
20260831030005 16 228 8.0 9.7 0.00 0.33 0.30 38 1008.3
20260831025505 16 230 4.8 9.7 0.00 0.33 0.30 38 1008.1
20260831025006 16 230 8.0 9.7 0.00 0.33 0.30 37 1008.0
20260831024506 16 230 4.8 9.7 0.00 0.33 0.30 37 1008.0
20260831024005 16 228 4.8 12.9 0.00 0.33 0.30 37 1007.9
20260831023505 16 200 8.0 12.9 0.00 0.33 0.30 36 1007.8
20260831023006 16 201 8.0 11.3 0.00 0.33 0.30 36 1007.7
20260831022504 17 229 8.0 14.5 0.00 0.33 0.30 34 1007.6
20260831022005 17 229 6.4 19.3 0.00 0.33 0.30 34 1007.5
20260831021505 17 239 11.3 20.9 0.00 0.33 0.30 33 1007.6
20260831021006 17 251 14.5 20.9 0.00 0.33 0.30 32 1007.4
20260831015505 18 270 16.1 25.7 0.00 0.33 0.30 29 1007.4
20260831015006 18 267 16.1 22.5 0.00 0.33 0.30 29 1007.3
20260831014505 18 261 12.9 22.5 0.00 0.33 0.30 29 1007.3
20260831013505 18 259 19.3 25.7 0.00 0.33 0.30 29 1007.3
20260831013005 18 259 17.7 25.7 0.00 0.33 0.30 29 1007.3
20260831012505 19 265 17.7 24.1 0.00 0.33 0.30 29 1007.3
20260831011505 19 268 19.3 24.1 0.00 0.33 0.30 28 1007.3
20260831011005 19 263 14.5 29.0 0.00 0.33 0.30 29 1007.4
20260831010005 19 272 19.3 29.0 0.00 0.33 0.30 29 1007.4
20260831005505 19 277 16.1 27.4 0.00 0.33 0.30 31 1007.3
20260831004505 19 283 16.1 32.2 0.00 0.33 0.30 32 1007.3
20260831004005 19 294 19.3 32.2 0.00 0.33 0.30 31 1007.3
20260831003505 19 285 19.3 32.2 0.00 0.38 0.30 31 1007.1
20260831003005 20 278 16.1 32.2 0.00 0.53 0.30 31 1007.1
20260831002505 20 287 19.3 32.2 0.00 0.58 0.30 31 1007.1
20260831002006 20 281 19.3 29.0 0.00 0.58 0.30 30 1007.1
20260831001505 20 286 22.5 32.2 0.00 0.58 0.30 29 1007.0
20260831001005 21 272 22.5 32.2 0.00 0.58 0.30 29 1007.1
20260831000005 21 281 22.5 38.6 0.00 0.58 0.30 29 1007.0
20260830235505 21 282 27.4 35.4 0.00 0.58 0.30 28 1006.9
20260830235005 21 284 19.3 35.4 0.00 0.58 0.30 29 1006.8
20260830234505 21 274 22.5 41.8 0.00 0.58 0.30 29 1006.9
20260830234005 21 286 25.7 41.8 0.00 0.58 0.30 28 1007.0
20260830233505 21 276 29.0 41.8 0.00 0.58 0.30 27 1006.9
20260830233005 21 273 25.7 41.8 0.00 0.58 0.30 28 1006.9
20260830232505 21 289 27.4 38.6 0.00 0.58 0.30 28 1006.8
20260830232006 21 270 27.4 41.8 0.00 0.58 0.30 27 1006.8
20260830231505 21 275 29.0 41.8 0.00 0.58 0.30 28 1006.8
20260830231005 21 275 27.4 40.2 0.00 0.58 0.30 28 1006.9
20260830230005 21 274 24.1 35.4 0.00 0.58 0.30 29 1006.9
20260830224505 21 284 22.5 40.2 0.00 0.58 0.30 30 1006.9
20260830224005 21 264 25.7 40.2 0.00 0.58 0.30 28 1007.0
20260830223505 21 280 22.5 37.0 0.00 0.58 0.30 28 1006.9
20260830223005 20 299 24.1 38.6 0.00 0.58 0.30 29 1006.9
20260830222505 20 298 20.9 38.6 0.00 0.58 0.30 30 1006.9
20260830222005 20 283 22.5 41.8 0.00 0.58 0.30 29 1006.9
20260830221505 20 278 25.7 41.8 0.00 0.58 0.30 30 1007.0
20260830220005 20 292 19.3 32.2 0.00 0.58 0.30 32 1007.2
20260830215505 20 280 20.9 32.2 0.00 0.58 0.30 32 1007.3
20260830215005 20 287 19.3 32.2 0.00 0.58 0.30 34 1007.3